Location: Newark
(35.5300°N, 14.3000°E)
Time: 23:57:50
(UTC+00:00)

S-56A Canister/Altair - Pass Details

Date: 21 November 2019
Orbit: 633 x 2499 km, 38.9° (Epoch: 07 December)

Event Time Altitude Azimuth Distance (km) Brightness Sun altitude
Rises 16:18:22 0° 258° (WSW) 5,451 14.3 -5.6°
Reaches altitude 10° 16:22:25 10° 260° (W) 4,180 13.0 -6.4°
Maximum altitude 16:32:58 79° 346° (NNW) 1,339 8.7 -8.4°
Enters shadow 16:39:26 12° 74° (ENE) 2,660 9.6 -9.6°
